Location: Hardenberg
(52.5670°N, 6.6170°E)
Time: 20:04:43
(UTC+02:00)

ISS - Pass Details

Date: 17 May 2021
Orbit: 417 x 422 km, 51.6° (Epoch: 12 June)

Event Time Altitude Azimuth Distance (km) Brightness Sun altitude
Rises 00:26:36 0° 260° (W) 2,365 0.1 -16.8°
Reaches altitude 10° 00:28:42 10° 258° (WSW) 1,503 -0.9 -16.9°
Maximum altitude 00:32:04 74° 174° (S) 442 -3.9 -17.0°
Drops below altitude 10° 00:35:27 10° 89° (E) 1,507 -1.1 -17.1°
Sets 00:37:33 0° 87° (E) 2,373 0.0 -17.2°
